YAOGAN 29

导读 | 星芒AI

遥感29号卫星是中国研制的一颗主要用于科学探测和国土资源普查的遥感卫星。该卫星具备高分辨率对地观测能力,能够获取地球表面的详细图像,广泛应用于环境监测、灾害预警、农业评估等领域。它由中国航天科技集团公司研制,并通过长征系列运载火箭发射升空。遥感29号卫星的运行进一步提升了中国在遥感技术和空间信息应用方面的能力,为国家的可持续发展提供了重要数据支持。

基本信息
目录编号:
41038
目录名称:
YAOGAN 29
国际标识:
2015-069A
轨道中心:
EARTH
卫星名称:
YAOGAN 29
卫星全名:
--
卫星状态:
在轨 (已飞行3672 天)
发射日期:
2015-11-26 UTC
国别 :
中国 (CN)
星等 :
--
轨道信息
数据来源 国际轨道数据 AOE轨道数据
星历时间 2025-12-15T07:29:36+0800
19小时前
查看轨道信息
2025-12-15T04:00:00+0800
22小时前
查看轨道信息
半长轴 6998.36km 6998.364km
偏心率 0.0000105 0.000001
轨道倾角 98.022° 98.021°
近地点辐角 209.445° 98.078°
升交点赤经 12.158° 12.013°
平近点角 150.676° 205.500°
近地点 620.151km 620.222km
远地点 620.299km 620.236km
周期 97.108分钟 97.108分钟
每日圈数 14.828882 14.828869
详细信息
使用方式:
暂无
2D轨道图
3D轨道图
轨道高度分析图
轨道倾角分析图
轨道综合分析图
查看轨道综合分析图